Location: Cossonay
(46.5833°N, 6.4167°E)
Time: 21:13:48
(UTC+00:00)

STARLINK-1257 - Pass Details

Date: 01 October 2020
Orbit: 549 x 550 km, 53.0° (Epoch: 22 October)

Event Time Altitude Azimuth Distance (km) Brightness Sun altitude
Exits shadow 04:54:53 - 222° (SW) 2,663 6.7 -7.4°
Reaches altitude 10° 04:57:02 10° 217° (SW) 1,815 5.9 -7.1°
Maximum altitude 05:01:01 50° 142° (SE) 705 4.5 -6.4°
Drops below altitude 10° 05:05:02 10° 67° (ENE) 1,826 7.6 -5.7°
Sets 05:07:19 0° 62° (ENE) 2,723 8.5 -5.3°
